Simultaneous Nadir Overpasses (SNOs) Predictions

Prediction of SNOs between LANDSAT-8 and NPP Satellite Orbit:

Table of predicted SNOs for the next 14.0 days since TLE Epoch: 7/10/2015
Index Date (LANDSAT-8) Time (LANDSAT-8) Lat,Lon (LANDSAT-8) SZA (LANDSAT-8 ) Date (NPP) Time (NPP) Lat,Lon (NPP) SZA (NPP ) Distance(km) Time Diff (sec)
1 07/12/2015 03:40:02 -70.53, -58.06 131.53 07/12/2015 03:39:14 -70.52, -57.98 131.53 3.14 48
2 07/12/2015 04:29:29 70.43, 109.44 48.39 07/12/2015 04:29:58 70.41, 109.49 48.37 2.56 29
3 07/14/2015 19:06:48 71.43,-108.40 49.73 07/14/2015 19:05:42 71.49,-111.16 49.89 98.09 66
4 07/14/2015 19:56:33 -70.50, 57.78 131.16 07/14/2015 19:56:07 -70.50, 57.82 131.16 1.30 26
5 07/14/2015 20:46:00 70.40,-134.72 48.75 07/14/2015 20:46:51 70.40,-134.72 48.74 0.17 51
6 07/17/2015 11:23:33 70.63, 6.22 49.39 07/17/2015 11:22:20 70.70, 5.95 49.48 12.38 73
7 07/17/2015 12:13:04 -70.47, 173.61 130.76 07/17/2015 12:13:00 -70.48, 173.61 130.74 2.00 4
8 07/17/2015 13:02:31 70.36, -18.90 49.15 07/17/2015 13:03:44 70.39, -18.93 49.17 3.28 73
9 07/20/2015 03:40:04 70.52, 121.95 49.77 07/20/2015 03:39:09 70.53, 121.99 49.78 1.80 55
10 07/20/2015 04:29:34 -70.42, -70.58 130.33 07/20/2015 04:29:51 -70.42, -70.51 130.33 2.30 17
11 07/20/2015 05:19:14 69.60, 95.90 48.90 07/20/2015 05:20:21 69.59, 98.05 48.81 83.45 67
12 07/22/2015 19:56:34 70.52,-122.18 50.28 07/22/2015 19:56:02 70.52,-122.23 50.29 1.73 32
13 07/22/2015 20:46:04 -70.42, 45.30
